Time,TemperatureF,DewpointF,PressureIn,WindDirection,WindDirectionDegrees,WindSpeedMPH,WindSpeedGustMPH,Humidity,HourlyPrecipIn,Conditions,Clouds,dailyrainin,SoftwareType,DateUTC
2013-05-02 00:02:00,60.0,45.0,-100.00,NNE,15,14.0,22.0,58,-99.99,,,-99.99,,2013-05-02 05:02:00,
2013-05-02 00:12:00,59.0,45.0,-100.00,NNW,345,9.0,22.0,60,-99.99,,,-99.99,,2013-05-02 05:12:00,
2013-05-02 00:22:00,56.0,43.0,-100.00,NNW,345,10.0,20.0,61,-99.99,,,-99.99,,2013-05-02 05:22:00,
2013-05-02 00:32:00,56.0,43.0,-100.00,NNW,345,10.0,20.0,61,-99.99,,,-99.99,,2013-05-02 05:32:00,
2013-05-02 00:42:00,55.0,42.0,-100.00,NNW,340,14.0,25.0,62,-99.99,,,-99.99,,2013-05-02 05:42:00,
2013-05-02 00:52:00,54.0,42.0,-100.00,North,5,12.0,24.0,64,-99.99,,,-99.99,,2013-05-02 05:52:00,
2013-05-02 01:01:00,54.0,42.0,-100.00,North,5,12.0,24.0,64,-99.99,,,-99.99,,2013-05-02 06:01:00,
2013-05-02 01:12:00,54.0,43.0,-100.00,NNE,25,9.0,13.0,66,-99.99,,,-99.99,,2013-05-02 06:12:00,
2013-05-02 01:21:00,53.0,42.0,-100.00,North,10,9.0,15.0,67,-99.99,,,-99.99,,2013-05-02 06:21:00,
2013-05-02 01:32:00,53.0,42.0,-100.00,North,10,9.0,15.0,67,-99.99,,,-99.99,,2013-05-02 06:32:00,
2013-05-02 01:42:00,53.0,42.0,-100.00,North,10,9.0,15.0,67,-99.99,,,-99.99,,2013-05-02 06:42:00,
2013-05-02 01:52:00,52.0,43.0,-100.00,North,5,6.0,11.0,71,-99.99,,,-99.99,,2013-05-02 06:52:00,
2013-05-02 02:02:00,52.0,43.0,-100.00,North,5,6.0,11.0,71,-99.99,,,-99.99,,2013-05-02 07:02:00,
2013-05-02 02:11:00,53.0,43.0,-100.00,North,10,5.0,10.0,70,-99.99,,,-99.99,,2013-05-02 07:11:00,
2013-05-02 02:21:00,54.0,44.0,-100.00,NE,40,5.0,11.0,69,-99.99,,,-99.99,,2013-05-02 07:21:00,
2013-05-02 02:32:00,54.0,44.0,-100.00,NE,40,5.0,11.0,69,-99.99,,,-99.99,,2013-05-02 07:32:00,
2013-05-02 02:42:00,54.0,44.0,-100.00,NE,40,5.0,11.0,69,-99.99,,,-99.99,,2013-05-02 07:42:00,
2013-05-02 02:52:00,54.0,42.0,-100.00,NE,35,14.0,26.0,65,-99.99,,,-99.99,,2013-05-02 07:52:00,
2013-05-02 03:02:00,54.0,42.0,-100.00,NE,35,14.0,26.0,65,-99.99,,,-99.99,,2013-05-02 08:02:00,
2013-05-02 03:11:00,53.0,42.0,-100.00,NE,40,13.0,26.0,66,-99.99,,,-99.99,,2013-05-02 08:11:00,
2013-05-02 03:22:00,52.0,42.0,-100.00,ENE,65,9.0,24.0,68,-99.99,,,-99.99,,2013-05-02 08:22:00,
2013-05-02 03:32:00,52.0,42.0,-100.00,ENE,65,9.0,24.0,68,-99.99,,,-99.99,,2013-05-02 08:32:00,
2013-05-02 03:42:00,52.0,41.0,-100.00,North,10,9.0,17.0,67,-99.99,,,-99.99,,2013-05-02 08:42:00,
2013-05-02 03:52:00,51.0,41.0,-100.00,NNE,30,9.0,16.0,68,-99.99,,,-99.99,,2013-05-02 08:52:00,
2013-05-02 04:02:00,51.0,41.0,-100.00,NNE,30,9.0,16.0,68,-99.99,,,-99.99,,2013-05-02 09:02:00,
2013-05-02 04:12:00,51.0,41.0,-100.00,NE,40,10.0,15.0,68,-99.99,,,-99.99,,2013-05-02 09:12:00,
2013-05-02 04:21:00,50.0,41.0,-100.00,NNW,340,7.0,19.0,69,-99.99,,,-99.99,,2013-05-02 09:21:00,
2013-05-02 04:32:00,50.0,41.0,-100.00,NNW,340,7.0,19.0,69,-99.99,,,-99.99,,2013-05-02 09:32:00,
2013-05-02 04:42:00,50.0,40.0,-100.00,NNE,30,8.0,19.0,69,-99.99,,,-99.99,,2013-05-02 09:42:00,
2013-05-02 04:52:00,49.0,39.0,-100.00,NNE,20,7.0,16.0,69,-99.99,,,-99.99,,2013-05-02 09:52:00,
2013-05-02 05:03:00,49.0,39.0,-100.00,NNE,20,7.0,16.0,69,-99.99,,,-99.99,,2013-05-02 10:03:00,
2013-05-02 05:12:00,49.0,39.0,-100.00,NE,40,8.0,17.0,69,-99.99,,,-99.99,,2013-05-02 10:12:00,
2013-05-02 05:22:00,48.0,38.0,-100.00,NNE,20,8.0,14.0,68,-99.99,,,-99.99,,2013-05-02 10:22:00,
2013-05-02 05:33:00,48.0,38.0,-100.00,NNE,20,8.0,14.0,68,-99.99,,,-99.99,,2013-05-02 10:33:00,
2013-05-02 05:42:00,48.0,38.0,-100.00,NNE,30,14.0,21.0,68,-99.99,,,-99.99,,2013-05-02 10:42:00,
2013-05-02 05:53:00,48.0,38.0,-100.00,NE,45,10.0,19.0,69,-99.99,,,-99.99,,2013-05-02 10:53:00,
2013-05-02 06:02:00,48.0,38.0,-100.00,NE,45,10.0,19.0,69,-99.99,,,-99.99,,2013-05-02 11:02:00,
2013-05-02 06:12:00,47.0,39.0,-100.00,NE,35,9.0,14.0,71,-99.99,,,-99.99,,2013-05-02 11:12:00,
2013-05-02 06:22:00,47.0,39.0,-100.00,NNE,20,10.0,18.0,72,-99.99,,,-99.99,,2013-05-02 11:22:00,
2013-05-02 06:32:00,47.0,39.0,-100.00,NNE,20,10.0,18.0,72,-99.99,,,-99.99,,2013-05-02 11:32:00,
2013-05-02 06:42:00,46.0,37.0,-100.00,NNE,15,11.0,18.0,69,-99.99,,,-99.99,,2013-05-02 11:42:00,
2013-05-02 06:52:00,46.0,37.0,-100.00,NE,40,11.0,19.0,69,-99.99,,,-99.99,,2013-05-02 11:52:00,
2013-05-02 07:01:00,46.0,37.0,-100.00,NE,40,11.0,19.0,69,-99.99,,,-99.99,,2013-05-02 12:01:00,
2013-05-02 07:11:00,46.0,36.0,-100.00,NNE,30,11.0,21.0,68,-99.99,,,-99.99,,2013-05-02 12:11:00,
2013-05-02 07:21:00,46.0,36.0,-100.00,NE,35,8.0,21.0,68,-99.99,,,-99.99,,2013-05-02 12:21:00,
2013-05-02 07:32:00,46.0,36.0,-100.00,NE,35,8.0,21.0,68,-99.99,,,-99.99,,2013-05-02 12:32:00,
2013-05-02 07:42:00,46.0,36.0,-100.00,NE,35,8.0,21.0,68,-99.99,,,-99.99,,2013-05-02 12:42:00,
2013-05-02 07:52:00,47.0,36.0,-100.00,NNE,30,13.0,21.0,67,-99.99,,,-99.99,,2013-05-02 12:52:00,
2013-05-02 08:01:00,47.0,36.0,-100.00,NNE,30,13.0,21.0,67,-99.99,,,-99.99,,2013-05-02 13:01:00,
2013-05-02 08:11:00,47.0,37.0,-100.00,NE,40,11.0,21.0,67,-99.99,,,-99.99,,2013-05-02 13:11:00,
2013-05-02 08:21:00,49.0,38.0,-100.00,NNE,25,8.0,14.0,66,-99.99,,,-99.99,,2013-05-02 13:21:00,
2013-05-02 08:32:00,49.0,38.0,-100.00,NNE,25,8.0,14.0,66,-99.99,,,-99.99,,2013-05-02 13:32:00,
2013-05-02 08:42:00,48.0,38.0,-100.00,North,5,12.0,20.0,66,-99.99,,,-99.99,,2013-05-02 13:42:00,
2013-05-02 08:52:00,49.0,38.0,-100.00,NNE,15,13.0,19.0,65,-99.99,,,-99.99,,2013-05-02 13:52:00,
2013-05-02 09:02:00,49.0,38.0,-100.00,NNE,15,13.0,19.0,65,-99.99,,,-99.99,,2013-05-02 14:02:00,
2013-05-02 09:11:00,49.0,37.0,-100.00,NW,325,14.0,21.0,64,-99.99,,,-99.99,,2013-05-02 14:11:00,
2013-05-02 09:22:00,49.0,37.0,-100.00,NNW,335,14.0,19.0,63,-99.99,,,-99.99,,2013-05-02 14:22:00,
2013-05-02 09:32:00,49.0,37.0,-100.00,NNW,335,14.0,19.0,63,-99.99,,,-99.99,,2013-05-02 14:32:00,
2013-05-02 09:42:00,49.0,37.0,-100.00,NNW,335,14.0,19.0,63,-99.99,,,-99.99,,2013-05-02 14:42:00,
2013-05-02 09:52:00,49.0,36.0,-100.00,NNW,340,15.0,23.0,61,-99.99,,,-99.99,,2013-05-02 14:52:00,
2013-05-02 10:02:00,49.0,36.0,-100.00,NNW,340,15.0,23.0,61,-99.99,,,-99.99,,2013-05-02 15:02:00,
2013-05-02 10:12:00,51.0,37.0,-100.00,North,5,14.0,24.0,59,-99.99,,,-99.99,,2013-05-02 15:12:00,
2013-05-02 10:22:00,52.0,37.0,-100.00,North,5,11.0,26.0,57,-99.99,,,-99.99,,2013-05-02 15:22:00,
2013-05-02 10:33:00,52.0,37.0,-100.00,North,5,11.0,26.0,57,-99.99,,,-99.99,,2013-05-02 15:33:00,
2013-05-02 10:43:00,51.0,37.0,-100.00,NE,40,9.0,25.0,60,-99.99,,,-99.99,,2013-05-02 15:43:00,
2013-05-02 11:03:00,52.0,37.0,-100.00,NNE,15,16.0,24.0,57,-99.99,,,-99.99,,2013-05-02 16:03:00,
2013-05-02 11:13:00,53.0,38.0,-100.00,NNW,345,14.0,19.0,56,-99.99,,,-99.99,,2013-05-02 16:13:00,
2013-05-02 11:22:00,52.0,38.0,-100.00,NNE,20,11.0,19.0,58,-99.99,,,-99.99,,2013-05-02 16:22:00,
2013-05-02 11:32:00,52.0,38.0,-100.00,NNE,20,11.0,19.0,58,-99.99,,,-99.99,,2013-05-02 16:32:00,
2013-05-02 11:43:00,52.0,38.0,-100.00,NNE,20,11.0,19.0,58,-99.99,,,-99.99,,2013-05-02 16:43:00,
2013-05-02 11:52:00,52.0,38.0,-100.00,North,10,12.0,19.0,58,-99.99,,,-99.99,,2013-05-02 16:52:00,
2013-05-02 12:02:00,52.0,38.0,-100.00,North,10,12.0,19.0,58,-99.99,,,-99.99,,2013-05-02 17:02:00,
2013-05-02 12:12:00,54.0,38.0,-100.00,NE,35,12.0,19.0,56,-99.99,,,-99.99,,2013-05-02 17:12:00,
2013-05-02 12:22:00,54.0,39.0,-100.00,NNE,25,16.0,25.0,57,-99.99,,,-99.99,,2013-05-02 17:22:00,
2013-05-02 12:32:00,54.0,39.0,-100.00,NNE,25,16.0,25.0,57,-99.99,,,-99.99,,2013-05-02 17:32:00,
2013-05-02 12:42:00,54.0,39.0,-100.00,North,5,11.0,17.0,56,-99.99,,,-99.99,,2013-05-02 17:42:00,
2013-05-02 12:52:00,55.0,40.0,-100.00,NNE,30,13.0,21.0,56,-99.99,,,-99.99,,2013-05-02 17:52:00,
2013-05-02 13:01:00,55.0,40.0,-100.00,NNE,30,13.0,21.0,56,-99.99,,,-99.99,,2013-05-02 18:01:00,
2013-05-02 13:11:00,55.0,40.0,-100.00,NNE,30,13.0,21.0,56,-99.99,,,-99.99,,2013-05-02 18:11:00,
2013-05-02 13:22:00,56.0,40.0,-100.00,NNW,340,15.0,24.0,53,-99.99,,,-99.99,,2013-05-02 18:22:00,
2013-05-02 13:32:00,56.0,40.0,-100.00,NNW,340,15.0,24.0,53,-99.99,,,-99.99,,2013-05-02 18:32:00,
2013-05-02 13:42:00,58.0,40.0,-100.00,NNE,25,11.0,18.0,52,-99.99,,,-99.99,,2013-05-02 18:42:00,
2013-05-02 13:52:00,58.0,41.0,-100.00,NNE,30,9.0,16.0,52,-99.99,,,-99.99,,2013-05-02 18:52:00,
2013-05-02 14:01:00,58.0,41.0,-100.00,NNE,30,9.0,16.0,52,-99.99,,,-99.99,,2013-05-02 19:01:00,
2013-05-02 14:11:00,58.0,41.0,-100.00,NE,35,6.0,14.0,53,-99.99,,,-99.99,,2013-05-02 19:11:00,
2013-05-02 14:22:00,58.0,41.0,-100.00,NE,45,7.0,14.0,54,-99.99,,,-99.99,,2013-05-02 19:22:00,
2013-05-02 14:32:00,58.0,41.0,-100.00,NE,45,7.0,14.0,54,-99.99,,,-99.99,,2013-05-02 19:32:00,
2013-05-02 14:42:00,58.0,41.0,-100.00,NE,40,10.0,14.0,53,-99.99,,,-99.99,,2013-05-02 19:42:00,
2013-05-02 14:52:00,58.0,41.0,-100.00,NNW,335,11.0,18.0,53,-99.99,,,-99.99,,2013-05-02 19:52:00,
2013-05-02 15:02:00,58.0,41.0,-100.00,NNW,335,11.0,18.0,53,-99.99,,,-99.99,,2013-05-02 20:02:00,
2013-05-02 15:11:00,58.0,41.0,-100.00,NNW,335,11.0,20.0,52,-99.99,,,-99.99,,2013-05-02 20:11:00,
2013-05-02 15:22:00,58.0,40.0,-100.00,North,5,11.0,20.0,52,-99.99,,,-99.99,,2013-05-02 20:22:00,
2013-05-02 15:32:00,58.0,40.0,-100.00,North,5,11.0,20.0,52,-99.99,,,-99.99,,2013-05-02 20:32:00,
2013-05-02 15:41:00,56.0,41.0,-100.00,North,5,14.0,19.0,56,-99.99,,,-99.99,,2013-05-02 20:41:00,
2013-05-02 15:52:00,56.0,41.0,-100.00,North,5,11.0,18.0,56,-99.99,,,-99.99,,2013-05-02 20:52:00,
2013-05-02 16:00:00,54.0,44.0,-100.00,North,5,10.0,16.0,69,-99.99,,,-99.99,,2013-05-02 21:00:00,
2013-05-02 16:01:00,56.0,41.0,-100.00,North,5,11.0,18.0,56,-99.99,,,-99.99,,2013-05-02 21:01:00,
2013-05-02 16:11:00,54.0,43.0,-100.00,North,5,14.0,18.0,66,-99.99,,,-99.99,,2013-05-02 21:11:00,
2013-05-02 16:21:00,54.0,44.0,-100.00,North,10,9.0,16.0,69,-99.99,,,-99.99,,2013-05-02 21:21:00,
2013-05-02 16:33:00,54.0,44.0,-100.00,North,10,9.0,16.0,69,-99.99,,,-99.99,,2013-05-02 21:33:00,
2013-05-02 16:42:00,54.0,44.0,-100.00,North,5,10.0,16.0,69,-99.99,,,-99.99,,2013-05-02 21:42:00,
2013-05-02 16:53:00,54.0,44.0,-100.00,North,5,10.0,16.0,69,-99.99,,,-99.99,,2013-05-02 21:53:00,
2013-05-02 17:12:00,52.0,44.0,-100.00,NNW,330,14.0,21.0,74,-99.99,,,-99.99,,2013-05-02 22:12:00,
2013-05-02 17:22:00,51.0,42.0,-100.00,NW,320,16.0,23.0,71,-99.99,,,-99.99,,2013-05-02 22:22:00,
2013-05-02 17:32:00,51.0,42.0,-100.00,NW,320,16.0,23.0,71,-99.99,,,-99.99,,2013-05-02 22:32:00,
2013-05-02 17:42:00,50.0,41.0,-100.00,NW,320,17.0,23.0,71,-99.99,,,-99.99,,2013-05-02 22:42:00,
2013-05-02 17:53:00,49.0,40.0,-100.00,NNW,330,16.0,22.0,72,-99.99,,,-99.99,,2013-05-02 22:53:00,
2013-05-02 18:02:00,49.0,40.0,-100.00,NNW,330,16.0,22.0,72,-99.99,,,-99.99,,2013-05-02 23:02:00,
2013-05-02 18:11:00,48.0,39.0,-100.00,NNW,330,17.0,24.0,71,-99.99,,,-99.99,,2013-05-02 23:11:00,
2013-05-02 18:22:00,47.0,39.0,-100.00,NNW,330,16.0,25.0,74,-99.99,,,-99.99,,2013-05-02 23:22:00,
2013-05-02 18:32:00,47.0,39.0,-100.00,NNW,330,16.0,25.0,74,-99.99,,,-99.99,,2013-05-02 23:32:00,
2013-05-02 18:42:00,46.0,39.0,-100.00,NNW,335,11.0,26.0,75,-99.99,,,-99.99,,2013-05-02 23:42:00,
2013-05-02 18:52:00,46.0,38.0,-100.00,NNW,330,20.0,26.0,74,-99.99,,,-99.99,,2013-05-02 23:52:00,
2013-05-02 19:01:00,46.0,38.0,-100.00,NNW,330,20.0,26.0,74,-99.99,,,-99.99,,2013-05-03 00:01:00,
2013-05-02 19:11:00,46.0,38.0,-100.00,NW,325,14.0,26.0,75,-99.99,,,-99.99,,2013-05-03 00:11:00,
2013-05-02 19:21:00,45.0,38.0,-100.00,NW,320,18.0,24.0,76,-99.99,,,-99.99,,2013-05-03 00:21:00,
2013-05-02 19:31:00,45.0,38.0,-100.00,NW,320,18.0,24.0,76,-99.99,,,-99.99,,2013-05-03 00:31:00,
2013-05-02 19:42:00,45.0,38.0,-100.00,NW,320,18.0,24.0,76,-99.99,,,-99.99,,2013-05-03 00:42:00,
2013-05-02 19:52:00,44.0,37.0,-100.00,North,350,20.0,26.0,76,-99.99,,,-99.99,,2013-05-03 00:52:00,
2013-05-02 20:01:00,44.0,37.0,-100.00,North,350,20.0,26.0,76,-99.99,,,-99.99,,2013-05-03 01:01:00,
2013-05-02 20:11:00,43.0,36.0,-100.00,NNW,345,15.0,24.0,76,-99.99,,,-99.99,,2013-05-03 01:11:00,
2013-05-02 20:21:00,43.0,36.0,-100.00,North,10,14.0,21.0,77,-99.99,,,-99.99,,2013-05-03 01:21:00,
2013-05-02 20:31:00,43.0,36.0,-100.00,North,10,14.0,21.0,77,-99.99,,,-99.99,,2013-05-03 01:31:00,
2013-05-02 20:42:00,43.0,36.0,-100.00,NNW,345,14.0,24.0,77,-99.99,,,-99.99,,2013-05-03 01:42:00,
2013-05-02 20:52:00,42.0,36.0,-100.00,North,355,14.0,21.0,77,-99.99,,,-99.99,,2013-05-03 01:52:00,
2013-05-02 21:01:00,42.0,36.0,-100.00,North,355,14.0,21.0,77,-99.99,,,-99.99,,2013-05-03 02:01:00,
2013-05-02 21:11:00,42.0,36.0,-100.00,NNW,345,14.0,22.0,79,-99.99,,,-99.99,,2013-05-03 02:11:00,
2013-05-02 21:21:00,42.0,36.0,-100.00,NNW,335,14.0,23.0,78,-99.99,,,-99.99,,2013-05-03 02:21:00,
2013-05-02 21:32:00,42.0,36.0,-100.00,NNW,335,14.0,23.0,78,-99.99,,,-99.99,,2013-05-03 02:32:00,
2013-05-02 21:42:00,42.0,36.0,-100.00,NNW,340,16.0,24.0,78,-99.99,,,-99.99,,2013-05-03 02:42:00,
2013-05-02 21:52:00,42.0,35.0,-100.00,NNW,330,13.0,19.0,77,-99.99,,,-99.99,,2013-05-03 02:52:00,
2013-05-02 22:01:00,42.0,35.0,-100.00,NNW,330,13.0,19.0,77,-99.99,,,-99.99,,2013-05-03 03:01:00,
2013-05-02 22:11:00,42.0,35.0,-100.00,NNW,330,13.0,19.0,77,-99.99,,,-99.99,,2013-05-03 03:11:00,
2013-05-02 22:21:00,42.0,36.0,-100.00,North,5,9.0,17.0,79,-99.99,,,-99.99,,2013-05-03 03:21:00,
2013-05-02 22:33:00,42.0,36.0,-100.00,North,5,9.0,17.0,79,-99.99,,,-99.99,,2013-05-03 03:33:00,
2013-05-02 22:42:00,42.0,36.0,-100.00,North,5,14.0,20.0,78,-99.99,,,-99.99,,2013-05-03 03:42:00,
2013-05-02 22:53:00,42.0,35.0,-100.00,North,10,13.0,28.0,78,-99.99,,,-99.99,,2013-05-03 03:53:00,
2013-05-02 23:03:00,42.0,35.0,-100.00,North,10,13.0,28.0,78,-99.99,,,-99.99,,2013-05-03 04:03:00,
2013-05-02 23:12:00,42.0,36.0,-100.00,North,5,13.0,24.0,79,-99.99,,,-99.99,,2013-05-03 04:12:00,
2013-05-02 23:23:00,41.0,35.0,-100.00,NNE,20,14.0,20.0,79,-99.99,,,-99.99,,2013-05-03 04:23:00,
2013-05-02 23:32:00,41.0,35.0,-100.00,NNE,20,14.0,20.0,79,-99.99,,,-99.99,,2013-05-03 04:32:00,
2013-05-02 23:42:00,41.0,35.0,-100.00,North,5,11.0,19.0,80,-99.99,,,-99.99,,2013-05-03 04:42:00,
2013-05-02 23:53:00,41.0,35.0,-100.00,NNE,15,12.0,24.0,81,-99.99,,,-99.99,,2013-05-03 04:53:00,